Location: Kra?nica
(53.4833°N, 14.6167°E)
Time: 18:13:46
(UTC+00:00)

EXPRESS MD2 - Pass Details

Date: 23 May 2024
Orbit: 262 x 3335 km, 49.9° (Epoch: 13 June)

Event Time Altitude Azimuth Distance (km) Brightness Sun altitude
Exits shadow 01:27:13 13° 199° (SSW) 1,252 4.5 -9.2°
Maximum altitude 01:29:19 25° 146° (SE) 995 4.5 -9.0°
Drops below altitude 10° 01:33:06 10° 91° (E) 2,144 6.8 -8.7°
Sets 01:36:39 0° 80° (E) 3,589 8.3 -8.4°
